Oakland, CA

7:55 AM PDT on September 24, 2017 (GMT -0700)
Metro Oakland International

Weather History for KOAK - November, 2012

Change the Weather History Date:

Wednesday, November 21, 2012

  Actual Average Record
Temperature  
Mean Temperature 57 °F 53 °F  
Max Temperature 65 °F 62 °F 73 °F (2015)
Min Temperature 49 °F 44 °F 38 °F (1975)
Degree Days  
Heating Degree Days 8 12  
Month to date heating degree days 139 203  
Since 1 July heating degree days 548 555  
Cooling Degree Days 0 0  
Month to date cooling degree days 2 0  
Year to date cooling degree days 61 137  
Growing Degree Days 7 (Base 50)    
Moisture  
Dew Point 56 °F    
Average Humidity 83    
Maximum Humidity 100    
Minimum Humidity 66    
Precipitation  
Precipitation 0.76 in 0.10 in 1.48 in (1977)
Month to date precipitation 2.04 1.71  
Year to date precipitation 14.81 16.41  
Since 1 July precipitation 2.87  
Sea Level Pressure  
Sea Level Pressure 30.12 in    
Wind  
Wind Speed 6 mph (SW)    
Max Wind Speed 14 mph    
Max Gust Speed 16 mph    
Visibility 7 miles    
Events Rain    
T = Trace of Precipitation, MM = Missing Value Source: NWS Daily Summary

Daily Weather History Graph

Daily Weather History Graph

Search for Another Location

Airport or City:

Trip Planner

Search our weather history database for the weather conditions in past years. The results will help you decide how hot, cold, wet, or windy it might be!

Date:

Astronomy

Nov. 21, 2012 Rise Set
Actual Time 6:55 AM PST 4:53 PM PST
Civil Twilight 6:27 AM PST 5:22 PM PST
Nautical Twilight 5:55 AM PST 5:54 PM PST
Astronomical Twilight 5:24 AM PST 6:25 PM PST
Moon 1:06 PM PST (11/21) 12:27 AM PST (11/21)
Length of Visible Light 10h 54m
Length of Day
9h 57m
Waxing Gibbous, 63% of the Moon is Illuminated
Nov 21
Waxing Gibbous
Nov 28
Full
Dec 6
Last Quarter
Dec 13
New
Dec 19
First Quarter

Hourly Weather History & Observations

Time (PST) Temp. Dew Point Humidity Pressure Visibility Wind Dir Wind Speed Gust Speed Precip Events Conditions
12:25 AM 60.8 °F 59.0 °F 94% 30.06 in 2.5 mi SW 4.6 mph - 0.04 in Rain Rain
12:36 AM 60.8 °F 59.0 °F 94% 30.06 in 2.0 mi West 8.1 mph - 0.11 in Rain Heavy Rain
12:47 AM 60.8 °F 59.0 °F 94% 30.07 in 1.2 mi West 6.9 mph - 0.22 in Rain Heavy Rain
12:53 AM 61.0 °F 59.0 °F 93% 30.06 in 1.2 mi West 5.8 mph - 0.29 in Rain Heavy Rain
1:03 AM 60.8 °F 60.8 °F 100% 30.06 in 1.5 mi Calm Calm - 0.07 in Rain Heavy Rain
1:53 AM 60.1 °F 59.0 °F 96% 30.06 in 3.0 mi SSE 5.8 mph - 0.27 in Rain Light Rain
2:01 AM 60.8 °F 60.8 °F 100% 30.06 in 4.0 mi SSE 6.9 mph - 0.00 in Rain Light Rain
2:53 AM 59.0 °F 59.0 °F 100% 30.06 in 5.0 mi SSE 8.1 mph - 0.05 in Rain Rain
3:12 AM 59.0 °F 59.0 °F 100% 30.05 in 7.0 mi SSE 10.4 mph - 0.00 in   Overcast
3:30 AM 59.0 °F 59.0 °F 100% 30.05 in 6.0 mi SSE 9.2 mph - 0.01 in Rain Light Rain
3:43 AM 59.0 °F 59.0 °F 100% 30.05 in 5.0 mi SSE 9.2 mph - 0.01 in Rain Light Rain
3:53 AM 59.0 °F 59.0 °F 100% 30.06 in 5.0 mi SSE 8.1 mph - 0.02 in Rain Light Rain
4:08 AM 57.2 °F 57.2 °F 100% 30.05 in 3.0 mi SSE 9.2 mph - 0.02 in Rain Rain
4:17 AM 57.2 °F 57.2 °F 100% 30.06 in 4.0 mi SSE 8.1 mph - 0.02 in Rain Light Rain
4:34 AM 57.2 °F 57.2 °F 100% 30.06 in 4.0 mi SSE 5.8 mph - 0.05 in Rain Rain
4:39 AM 57.2 °F 57.2 °F 100% 30.06 in 4.0 mi SSE 5.8 mph - 0.06 in Rain Light Rain
4:53 AM 57.9 °F 57.9 °F 100% 30.06 in 4.0 mi SSE 4.6 mph - 0.08 in Rain Light Rain
5:01 AM 57.2 °F 57.2 °F 100% 30.07 in 3.0 mi South 4.6 mph - 0.00 in Rain Light Rain
5:11 AM 57.2 °F 57.2 °F 100% 30.07 in 3.0 mi South 4.6 mph - 0.02 in Rain Rain
5:19 AM 57.2 °F 57.2 °F 100% 30.08 in 4.0 mi SSW 4.6 mph - 0.03 in Rain Light Rain
5:28 AM 57.2 °F 57.2 °F 100% 30.08 in 4.0 mi SW 5.8 mph - 0.03 in Rain Light Rain
5:41 AM 57.2 °F 57.2 °F 100% 30.09 in 5.0 mi SW 4.6 mph - 0.04 in Rain Light Rain
5:53 AM 57.0 °F 57.0 °F 100% 30.09 in 4.0 mi SW 3.5 mph - 0.04 in Rain Light Rain
6:19 AM 57.2 °F 57.2 °F 100% 30.10 in 6.0 mi WNW 4.6 mph - 0.01 in   Overcast
6:51 AM 57.2 °F 57.2 °F 100% 30.11 in 6.0 mi Calm Calm - 0.01 in Rain Light Rain
6:53 AM 57.0 °F 57.0 °F 100% 30.12 in 6.0 mi Calm Calm - 0.01 in Rain Light Rain
7:20 AM 57.2 °F 57.2 °F 100% 30.13 in 10.0 mi West 4.6 mph - 0.00 in   Overcast
7:53 AM 57.0 °F 57.0 °F 100% 30.14 in 10.0 mi Calm Calm - 0.00 in   Overcast
8:04 AM 57.2 °F 57.2 °F 100% 30.15 in 10.0 mi Calm Calm - N/A   Overcast
8:51 AM 60.8 °F 57.2 °F 88% 30.17 in 10.0 mi WSW 4.6 mph - 0.00 in Rain Light Rain
8:53 AM 60.1 °F 56.7 °F 88% 30.17 in 10.0 mi WSW 5.8 mph - 0.00 in   Mostly Cloudy
9:53 AM 61.0 °F 57.0 °F 87% 30.18 in 10.0 mi West 5.8 mph - N/A   Scattered Clouds
10:53 AM 63.0 °F 57.0 °F 81% 30.19 in 10.0 mi WSW 8.1 mph - N/A   Scattered Clouds
11:53 AM 64.0 °F 55.0 °F 73% 30.17 in 10.0 mi West 10.4 mph - N/A   Scattered Clouds
12:53 PM 64.9 °F 54.0 °F 68% 30.17 in 10.0 mi West 10.4 mph - N/A   Scattered Clouds
1:53 PM 64.0 °F 54.0 °F 70% 30.16 in 10.0 mi West 12.7 mph - N/A   Mostly Cloudy
2:53 PM 64.9 °F 53.1 °F 65% 30.17 in 10.0 mi West 9.2 mph - N/A   Mostly Cloudy
3:53 PM 63.0 °F 53.1 °F 70% 30.17 in 10.0 mi West 9.2 mph - N/A   Mostly Cloudy
4:53 PM 61.0 °F 51.1 °F 70% 30.17 in 10.0 mi WNW 10.4 mph - N/A   Mostly Cloudy
5:53 PM 59.0 °F 50.0 °F 72% 30.18 in 10.0 mi WNW 13.8 mph - N/A   Partly Cloudy
6:53 PM 57.0 °F 48.9 °F 74% 30.19 in 10.0 mi NW 3.5 mph - N/A   Clear
7:53 PM 55.9 °F 45.0 °F 67% 30.20 in 10.0 mi NNW 8.1 mph - N/A   Partly Cloudy
8:53 PM 55.9 °F 46.0 °F 69% 30.21 in 10.0 mi NNW 6.9 mph - N/A   Clear
9:53 PM 54.0 °F 46.0 °F 75% 30.22 in 10.0 mi North 4.6 mph - N/A   Clear
10:53 PM 50.0 °F 45.0 °F 83% 30.22 in 10.0 mi Calm Calm - N/A   Clear
11:53 PM 48.9 °F 45.0 °F 86% 30.22 in 10.0 mi Calm Calm - N/A   Clear